Lincoln, IL

10:49 AM CST on December 07, 2019 (GMT -0600)
Lincoln

Weather History for KAAA - November, 2019

Change the Weather History Date:

Monday, November 11, 2019

  Actual Average (WUND) Record (WUND)
Temperature  
Mean Temperature 26 °F -  
Max Temperature 38 °F - - (-1)
Min Temperature 13 °F - - (-1)
Degree Days  
Heating Degree Days 40    
Moisture  
Dew Point 23 °F    
Average Humidity 83    
Maximum Humidity 97    
Minimum Humidity 65    
Precipitation  
Precipitation 0.01 in - - ()
Sea Level Pressure  
Sea Level Pressure 30.28 in    
Wind  
Wind Speed 10 mph ()    
Max Wind Speed 20 mph    
Max Gust Speed 30 mph    
Visibility 7.0 miles    
Events Rain , Snow    
Averages and records for this station are not official NWS values.
T = Trace of Precipitation, MM = Missing Value Source: Averaged Metar Reports

Daily Weather History Graph

Daily Weather History Graph

Search for Another Location

Airport or City:

Astronomy

Nov. 11, 2019 Rise Set
Actual Time 6:37 AM CST 4:44 PM CST
Civil Twilight 6:09 AM CST 5:12 PM CST
Nautical Twilight 5:36 AM CST 5:45 PM CST
Astronomical Twilight 5:04 AM CST 6:17 PM CST
Moon 4:39 PM CST (11/11) 5:29 AM CST (11/11)
Length of Visible Light 11h 03m
Length of Day
10h 06m
Waxing Gibbous, 99% of the Moon is Illuminated
Nov 11
Waxing Gibbous
Nov 12
Full
Nov 19
Last Quarter
Nov 26
New
Dec 4
First Quarter

Hourly Weather History & Observations

Time (CST) Temp. Windchill Dew Point Humidity Pressure Visibility Wind Dir Wind Speed Gust Speed Precip Events Conditions
12:15 AM 37.9 °F 32.7 °F 34.9 °F 89% 30.12 in 10.0 mi NNE 6.9 mph - N/A   Overcast
12:35 AM 38.3 °F 32.5 °F 34.7 °F 87% 30.11 in 10.0 mi NNE 8.1 mph - N/A   Overcast
12:55 AM 38.3 °F 33.9 °F 34.7 °F 87% 30.11 in 10.0 mi North 5.8 mph - N/A   Overcast
1:15 AM 38.3 °F 33.2 °F 34.9 °F 87% 30.11 in 10.0 mi North 6.9 mph - N/A   Overcast
1:35 AM 38.3 °F 33.9 °F 34.9 °F 87% 30.11 in 10.0 mi North 5.8 mph - N/A   Overcast
1:55 AM 38.3 °F 33.2 °F 34.7 °F 87% 30.12 in 10.0 mi North 6.9 mph - N/A   Overcast
2:15 AM 38.3 °F 33.2 °F 34.5 °F 86% 30.12 in 10.0 mi North 6.9 mph - N/A   Overcast
2:35 AM 38.3 °F 33.2 °F 34.2 °F 85% 30.12 in 10.0 mi North 6.9 mph - N/A   Overcast
2:55 AM 37.9 °F 32.1 °F 33.8 °F 85% 30.12 in 10.0 mi North 8.1 mph - N/A   Overcast
3:15 AM 37.8 °F 31.3 °F 34.0 °F 86% 30.12 in 10.0 mi North 9.2 mph - N/A   Overcast
3:35 AM 37.4 °F 30.3 °F 34.0 °F 87% 30.12 in 10.0 mi North 10.4 mph - N/A   Overcast
3:55 AM 37.0 °F 30.4 °F 34.0 °F 89% 30.12 in 10.0 mi North 9.2 mph - N/A   Overcast
4:15 AM 36.9 °F 29.6 °F 34.0 °F 89% 30.11 in 7.0 mi North 10.4 mph - N/A   Overcast
4:35 AM 36.7 °F 28.9 °F 34.0 °F 90% 30.12 in 10.0 mi North 11.5 mph - N/A   Overcast
4:55 AM 36.5 °F 29.7 °F 34.0 °F 91% 30.13 in 10.0 mi North 9.2 mph - N/A   Overcast
5:15 AM 36.0 °F 28.5 °F 34.5 °F 94% 30.13 in 7.0 mi North 10.4 mph - N/A   Light Drizzle
5:35 AM 36.0 °F 28.0 °F 34.3 °F 94% 30.14 in 7.0 mi North 11.5 mph 17.3 mph N/A   Overcast
5:55 AM 35.8 °F 27.8 °F 33.8 °F 92% 30.14 in 10.0 mi North 11.5 mph 16.1 mph N/A   Overcast
6:15 AM 35.6 °F 28.6 °F 34.0 °F 94% 30.14 in 7.0 mi North 9.2 mph - N/A Rain Rain
6:35 AM 34.9 °F 27.1 °F 34.0 °F 97% 30.15 in 5.0 mi North 10.4 mph - N/A   Heavy Drizzle
6:55 AM 33.8 °F 24.3 °F 32.9 °F 96% 30.15 in 5.0 mi North 13.8 mph 19.6 mph 0.01 in   Drizzle
7:15 AM 33.1 °F 21.5 °F 32.0 °F 96% 30.16 in 7.0 mi North 19.6 mph 23.0 mph N/A Rain Light Rain
7:35 AM 32.0 °F 21.2 °F 30.6 °F 94% 30.18 in 10.0 mi North 16.1 mph 20.7 mph N/A Rain Light Rain
7:55 AM 31.1 °F 19.7 °F 29.1 °F 92% 30.20 in 7.0 mi North 17.3 mph 29.9 mph N/A   Overcast
8:15 AM 30.0 °F 17.5 °F 28.2 °F 93% 30.21 in 1.8 mi North 19.6 mph 29.9 mph N/A Snow Light Snow
8:35 AM 28.9 °F 18.2 °F 27.5 °F 94% 30.22 in 1.0 mi North 13.8 mph 20.7 mph N/A Snow Light Snow
8:55 AM 28.2 °F 15.5 °F 26.6 °F 94% 30.23 in 1.2 mi North 18.4 mph 27.6 mph N/A Snow Light Snow
9:15 AM 28.0 °F 15.3 °F 26.4 °F 94% 30.23 in 1.0 mi North 18.4 mph 23.0 mph N/A Snow Light Snow
9:35 AM 28.2 °F 15.5 °F 25.7 °F 90% 30.25 in 1.5 mi North 18.4 mph 26.5 mph N/A Snow Light Snow
9:55 AM 26.8 °F 14.9 °F 23.5 °F 88% 30.25 in 2.5 mi NNW 15.0 mph 27.6 mph N/A Snow Light Snow
10:15 AM 26.4 °F 14.5 °F 23.7 °F 90% 30.25 in 1.2 mi North 15.0 mph 26.5 mph N/A Snow Light Snow
10:55 AM 25.7 °F 12.7 °F 22.8 °F 89% 30.26 in 1.5 mi North 17.3 mph 24.2 mph N/A Snow Light Snow
11:15 AM 25.9 °F 15.3 °F 23.5 °F 91% 30.26 in 2.5 mi North 11.5 mph 18.4 mph N/A Snow Light Snow
11:35 AM 25.2 °F 12.0 °F 22.6 °F 90% 30.27 in 0.8 mi North 17.3 mph 25.3 mph N/A Snow Light Snow
11:55 AM 24.8 °F 12.4 °F 21.9 °F 89% 30.27 in 1.2 mi North 15.0 mph 23.0 mph N/A Snow Light Snow
12:15 PM 24.3 °F 11.7 °F 21.2 °F 88% 30.28 in 1.0 mi North 15.0 mph 27.6 mph N/A Snow Light Snow
12:35 PM 24.3 °F 12.7 °F 22.1 °F 91% 30.27 in 0.8 mi North 12.7 mph 21.9 mph N/A Snow Light Snow
12:55 PM 24.4 °F 13.5 °F 21.7 °F 89% 30.27 in 1.0 mi NNW 11.5 mph 20.7 mph N/A Snow Light Snow
1:15 PM 23.9 °F 12.9 °F 21.2 °F 89% 30.28 in 1.0 mi NNW 11.5 mph 17.3 mph N/A Snow Light Snow
1:35 PM 23.0 °F 12.4 °F 21.2 °F 93% 30.29 in 0.8 mi NNW 10.4 mph 17.3 mph N/A Snow Light Snow
1:55 PM 23.0 °F 11.1 °F 20.7 °F 91% 30.30 in 0.5 mi North 12.7 mph 23.0 mph N/A Snow Snow
2:15 PM 23.0 °F 10.6 °F 20.8 °F 91% 30.30 in 0.5 mi NNW 13.8 mph 19.6 mph N/A Snow Snow
2:35 PM 22.6 °F 10.7 °F 20.3 °F 91% 30.32 in 0.8 mi NNW 12.7 mph 20.7 mph N/A Snow Light Snow
2:55 PM 22.8 °F 13.6 °F 20.7 °F 91% 30.32 in 0.8 mi NNW 8.1 mph - N/A Snow Light Snow
3:15 PM 23.0 °F 12.4 °F 20.3 °F 89% 30.32 in 2.0 mi NNW 10.4 mph 17.3 mph N/A Snow Light Snow
3:35 PM 23.5 °F 13.0 °F 19.2 °F 84% 30.32 in 10.0 mi NNW 10.4 mph 18.4 mph N/A   Overcast
3:55 PM 23.9 °F 13.5 °F 18.5 °F 80% 30.33 in 10.0 mi NNW 10.4 mph 18.4 mph N/A   Overcast
4:15 PM 23.9 °F 11.7 °F 17.1 °F 75% 30.34 in 10.0 mi NNW 13.8 mph 20.7 mph N/A   Overcast
4:35 PM 23.9 °F 13.5 °F 15.8 °F 71% 30.36 in 10.0 mi NNW 10.4 mph 19.6 mph N/A   Mostly Cloudy
4:55 PM 23.7 °F 13.3 °F 15.4 °F 71% 30.36 in 10.0 mi NNW 10.4 mph 18.4 mph N/A   Mostly Cloudy
5:15 PM 23.5 °F 11.3 °F 14.9 °F 70% 30.37 in 10.0 mi NNW 13.8 mph 18.4 mph N/A   Scattered Clouds
5:35 PM 23.5 °F 12.4 °F 15.4 °F 71% 30.38 in 10.0 mi NNW 11.5 mph 16.1 mph N/A   Mostly Cloudy
5:55 PM 23.5 °F 13.0 °F 15.3 °F 71% 30.39 in 10.0 mi NNW 10.4 mph 19.6 mph N/A   Overcast
6:15 PM 22.5 °F 11.7 °F 13.8 °F 69% 30.40 in 10.0 mi NNW 10.4 mph - N/A   Mostly Cloudy
6:35 PM 21.9 °F 13.4 °F 13.3 °F 69% 30.40 in 10.0 mi NNW 6.9 mph - N/A   Mostly Cloudy
6:55 PM 21.2 °F 10.9 °F 11.7 °F 67% 30.42 in 10.0 mi NNW 9.2 mph 17.3 mph N/A   Scattered Clouds
7:15 PM 19.9 °F 10.1 °F 11.3 °F 69% 30.43 in 10.0 mi NW 8.1 mph - N/A   Clear
7:35 PM 19.4 °F 9.5 °F 10.4 °F 68% 30.43 in 10.0 mi NW 8.1 mph - N/A   Clear
7:55 PM 18.9 °F 9.8 °F 9.5 °F 67% 30.44 in 10.0 mi NW 6.9 mph - N/A   Clear
8:15 PM 18.5 °F 7.5 °F 8.6 °F 65% 30.45 in 10.0 mi NW 9.2 mph - N/A   Clear
8:35 PM 17.6 °F 8.2 °F 8.6 °F 68% 30.46 in 10.0 mi NW 6.9 mph - N/A   Clear
8:55 PM 17.1 °F 7.6 °F 9.0 °F 71% 30.46 in 10.0 mi NW 6.9 mph - N/A   Clear
9:15 PM 16.7 °F 7.2 °F 8.8 °F 71% 30.47 in 10.0 mi NW 6.9 mph - N/A   Clear
9:55 PM 16.3 °F 5.7 °F 7.9 °F 69% 30.47 in 10.0 mi NW 8.1 mph - N/A   Clear
10:15 PM 15.8 °F 5.1 °F 7.7 °F 70% 30.48 in 10.0 mi NW 8.1 mph - N/A   Clear
10:35 PM 15.4 °F 5.6 °F 7.2 °F 70% 30.49 in 10.0 mi NW 6.9 mph - N/A   Clear
10:55 PM 14.7 °F 4.8 °F 6.6 °F 70% 30.49 in 10.0 mi NW 6.9 mph - N/A   Clear
11:15 PM 14.0 °F 5.1 °F 5.9 °F 70% 30.50 in 10.0 mi NW 5.8 mph - N/A   Clear
11:35 PM 13.8 °F 3.7 °F 5.9 °F 71% 30.49 in 10.0 mi NW 6.9 mph - N/A   Clear
11:55 PM 13.3 °F 2.0 °F 5.4 °F 71% 30.49 in 10.0 mi NW 8.1 mph - N/A   Clear